EW5860 Weather Reports


time (UTC)temp
C
wind
direction
speed
KPH
gust
KPH
rain 1hr
cm
rain 24hr
cm
rain mn
cm
humidity
%
barometer
mb
20200124010123 0 224 0.0 0.0 0.00 0.00 0.00 71 1028.8
20200124004509 0 224 0.0 0.0 0.00 0.00 0.00 71 1028.7
20200124003037 0 236 0.0 0.0 0.00 0.00 0.00 71 1028.7
20200124001508 0 236 0.0 0.0 0.00 0.00 0.00 72 1028.5
20200124000007 0 237 0.0 0.0 0.00 0.00 0.00 75 1028.4
20200123234513 0 237 0.0 0.0 0.00 0.00 0.00 73 1028.2
20200123233006 1 237 0.0 1.6 0.00 0.00 0.00 73 1028.0
20200123231511 1 155 0.0 0.0 0.00 0.00 0.00 67 1027.9
20200123230003 1 155 0.0 0.0 0.00 0.00 0.00 67 1028.1
20200123224503 1 154 0.0 0.0 0.00 0.00 0.00 63 1028.1
20200123223005 2 155 0.0 0.0 0.00 0.00 0.00 68 1028.1
20200123220351 2 115 0.0 0.0 0.00 0.00 0.00 65 1028.1
20200123214836 3 115 0.0 0.0 0.00 0.00 0.00 58 1028.2
20200123213333 3 115 0.0 0.0 0.00 0.00 0.00 59 1028.0
20200123211816 4 115 0.0 0.0 0.00 0.00 0.00 53 1028.0
20200123210239 4 116 0.0 1.6 0.00 0.00 0.00 53 1027.9
20200123204700 4 116 0.0 1.6 0.00 0.00 0.00 54 1027.9
20200123203230 4 112 0.0 0.0 0.00 0.00 0.00 53 1027.6
20200123201637 5 112 0.0 1.6 0.00 0.00 0.00 53 1027.4
20200123200157 5 121 0.0 1.6 0.00 0.00 0.00 53 1027.5
20200123194701 5 75 0.0 1.6 0.00 0.00 0.00 54 1027.4
20200123193235 5 75 0.0 1.6 0.00 0.00 0.00 54 1027.5
20200123191721 5 111 0.0 1.6 0.00 0.00 0.00 54 1027.7
20200123190138 5 44 0.0 1.6 0.00 0.00 0.00 53 1027.9
20200123184648 4 105 0.0 1.6 0.00 0.00 0.00 55 1028.0
20200123183112 4 83 0.0 1.6 0.00 0.00 0.00 56 1028.2
20200123181807 3 282 0.0 3.2 0.00 0.00 0.00 58 1028.5
20200123180057 3 315 0.0 3.2 0.00 0.00 0.00 60 1028.8
20200123174639 3 329 0.0 1.6 0.00 0.00 0.00 59 1029.1
20200123173126 3 67 0.0 1.6 0.00 0.00 0.00 60 1029.4
20200123171541 2 13 0.0 1.6 0.00 0.00 0.00 62 1029.6
20200123170114 2 65 0.0 0.0 0.00 0.00 0.00 64 1029.9
20200123164529 2 38 0.0 1.6 0.00 0.00 0.00 66 1030.2
20200123163124 2 328 0.0 3.2 0.00 0.00 0.00 67 1030.5
20200123161715 1 28 0.0 1.6 0.00 0.00 0.00 70 1030.7
20200123160114 1 36 0.0 0.0 0.00 0.00 0.00 71 1030.9
20200123154516 0 21 0.0 0.0 0.00 0.00 0.00 71 1031.1
20200123153010 0 28 0.0 0.0 0.00 0.00 0.00 72 1031.1
20200123151505 0 360 0.0 1.6 0.00 0.00 0.00 73 1031.1
20200123150003 -1 12 0.0 0.0 0.00 0.00 0.00 74 1031.1
20200123144646 -2 12 0.0 1.6 0.00 0.00 0.00 80 1031.2
20200123143139 -2 12 0.0 1.6 0.00 0.00 0.00 81 1031.0
20200123141633 -3 217 0.0 0.0 0.00 0.00 0.00 87 1030.9
20200123140200 -4 217 0.0 0.0 0.00 0.00 0.00 88 1030.9
20200123134640 -5 217 0.0 0.0 0.00 0.00 0.00 88 1030.6
20200123133143 -6 217 0.0 0.0 0.00 0.00 0.00 88 1030.5
20200123131639 -6 217 0.0 0.0 0.00 0.00 0.00 87 1030.5
20200123130154 -6 217 0.0 0.0 0.00 0.00 0.00 88 1030.5
20200123124652 -6 216 0.0 0.0 0.00 0.00 0.00 88 1030.4
20200123123154 -6 216 0.0 0.0 0.00 0.00 0.00 87 1030.4
20200123121745 -6 216 0.0 0.0 0.00 0.00 0.00 88 1030.5
20200123120143 -6 216 0.0 0.0 0.00 0.00 0.00 88 1030.5
20200123114631 -6 216 0.0 0.0 0.00 0.00 0.00 88 1030.3
20200123113122 -7 216 0.0 0.0 0.00 0.00 0.00 88 1030.3
20200123111552 -7 216 0.0 0.0 0.00 0.00 0.00 87 1030.2
20200123110136 -7 216 0.0 0.0 0.00 0.00 0.00 86 1030.0
20200123104553 -6 216 0.0 0.0 0.00 0.00 0.00 86 1030.1
20200123103059 -6 216 0.0 0.0 0.00 0.00 0.00 86 1030.1
20200123101609 -7 215 0.0 0.0 0.00 0.00 0.00 87 1030.0
20200123100308 -7 148 0.0 0.0 0.00 0.00 0.00 86 1029.8
20200123094617 -7 148 0.0 0.0 0.00 0.00 0.00 86 1029.6
20200123093113 -7 148 0.0 0.0 0.00 0.00 0.00 85 1029.8
20200123091610 -6 148 0.0 0.0 0.00 0.00 0.00 85 1029.8
20200123090040 -6 148 0.0 0.0 0.00 0.00 0.00 85 1030.1
20200123084542 -6 148 0.0 0.0 0.00 0.00 0.00 86 1030.1
20200123083123 -6 148 0.0 0.0 0.00 0.00 0.00 85 1030.2
20200123081554 -6 148 0.0 0.0 0.00 0.00 0.00 84 1030.4
20200123080055 -6 148 0.0 0.0 0.00 0.00 0.00 84 1030.6
20200123074611 -6 148 0.0 0.0 0.00 0.00 0.00 84 1030.7
20200123073121 -6 148 0.0 0.0 0.00 0.00 0.00 84 1030.6
20200123071554 -6 148 0.0 0.0 0.00 0.00 0.00 84 1030.5
20200123070039 -6 250 0.0 0.0 0.00 0.00 0.00 84 1030.1
20200123064526 -6 250 0.0 0.0 0.00 0.00 0.00 85 1030.1
20200123063054 -6 250 0.0 0.0 0.00 0.00 0.00 84 1030.2
20200123061525 -6 250 0.0 0.0 0.00 0.00 0.00 83 1030.4
20200123060122 -5 250 0.0 0.0 0.00 0.00 0.00 82 1030.5
20200123054551 -5 250 0.0 0.0 0.00 0.00 0.00 82 1030.7
20200123053030 -5 250 0.0 0.0 0.00 0.00 0.00 82 1031.0
20200123051525 -5 250 0.0 0.0 0.00 0.00 0.00 81 1031.1
20200123050002 -5 250 0.0 0.0 0.00 0.00 0.00 80 1031.2
20200123044501 -4 250 0.0 0.0 0.00 0.00 0.00 79 1031.3
20200123043203 -4 250 0.0 0.0 0.00 0.00 0.00 80 1031.2
20200123041745 -5 250 0.0 0.0 0.00 0.00 0.00 81 1031.4
20200123040152 -5 250 0.0 0.0 0.00 0.00 0.00 81 1031.3
20200123034718 -5 250 0.0 0.0 0.00 0.00 0.00 81 1031.1
20200123033219 -5 250 0.0 0.0 0.00 0.00 0.00 81 1031.1
20200123031657 -5 250 0.0 0.0 0.00 0.00 0.00 80 1031.3
20200123030404 -5 250 0.0 0.0 0.00 0.00 0.00 81 1031.2
20200123024716 -5 250 0.0 0.0 0.00 0.00 0.00 82 1031.2
20200123023240 -5 250 0.0 0.0 0.00 0.00 0.00 80 1031.0
20200123021631 -5 251 0.0 0.0 0.00 0.00 0.00 79 1031.1
20200123020213 -4 251 0.0 0.0 0.00 0.00 0.00 78 1031.2
20200123014613 -4 251 0.0 0.0 0.00 0.00 0.00 76 1031.0
20200123013231 -3 251 0.0 0.0 0.00 0.00 0.00 75 1031.1
20200123011752 -3 251 0.0 0.0 0.00 0.00 0.00 75 1031.1